Terminal Aerodrome Forecast
Issued by NWS Boston, MA

Home | Current Version | Previous Version | Text Only | Print | Product List | Glossary On
Versions: 1 2 3 4 5 6 7 8 9 10 11 12 13 14 15 16 17 18 19 20 21 22 23 24 25 26 27 28 29 30 31 32 33 34 35 36 37 38 39 40 41 42 43 44 45 46
000
FTUS41 KBOX 250535
TAFPVD
TAF
KPVD 250535Z 2506/2606 VRB03KT P6SM BKN060 BKN250
     FM251200 01005KT P6SM SCT250
     FM251600 05006KT P6SM SKC
     FM251700 13006KT P6SM SKC
     FM252000 20010KT P6SM SKC
     FM260300 22006KT P6SM FEW250=

USA.gov is the U.S. government's official web portal to all federal, state and local government web resources and services.